Location: Erfurt
(50.9688°N, 11.0193°E)
Time: 09:43:55
(UTC+01:00)

ISS - Pass Details

Date: 09 January 2018
Orbit: 401 x 406 km, 51.6° (Epoch: 17 January)

Event Time Altitude Azimuth Distance (km) Brightness Sun altitude
Exits shadow 07:22:57 10° 277° (W) 1,472 -1.6 -8.1°
Reaches altitude 10° 07:22:58 10° 277° (W) 1,467 -1.6 -8.1°
Maximum altitude 07:26:02 37° 208° (SSW) 650 -2.8 -7.7°
Drops below altitude 10° 07:29:06 10° 139° (SE) 1,463 0.3 -7.3°
Sets 07:31:15 0° 131° (SE) 2,321 1.9 -6.9°
